• Em Portugal
  • Lista de países
  • Para 7 dias
  • Temperatura da água
  • Mapas de satélite
  • Mapa do tempo
  • Widgets de tempo
  • user-avatar
    Iniciar Sessão

    Previsão horária em Wladyslawek

    Hoje, 18 Outubro, Quinta-feira

    Tempo Temperatura Precipitação Vento Pressão Humidade
    00:00 +13°C° 0 mm 1 m/s 750 mmHg 66%
    01:00 +13°C° 0 mm 1 m/s 750 mmHg 66%
    02:00 +12°C° 0 mm 1 m/s 750 mmHg 67%
    03:00 +12°C° 0 mm 1 m/s 750 mmHg 68%
    04:00 +12°C° 0 mm 1 m/s 749 mmHg 70%
    05:00 +12°C° 0 mm 1 m/s 749 mmHg 71%
    06:00 +12°C° 0 mm 1 m/s 750 mmHg 72%
    07:00 +11°C° 0 mm 1 m/s 750 mmHg 73%
    08:00 +13°C° 0 mm 1 m/s 750 mmHg 67%
    09:00 +15°C° 0 mm 1 m/s 750 mmHg 61%
    10:00 +18°C° 0 mm 1 m/s 750 mmHg 54%
    11:00 +19°C° 0 mm 1 m/s 750 mmHg 52%
    12:00 +20°C° 0 mm 1 m/s 750 mmHg 49%
    13:00 +21°C° 0 mm 1 m/s 750 mmHg 47%
    14:00 +19°C° 0 mm 2 m/s 749 mmHg 50%
    15:00 +18°C° 0 mm 2 m/s 749 mmHg 54%
    16:00 +18°C° 0 mm 2 m/s 749 mmHg 57%
    17:00 +17°C° 0 mm 2 m/s 750 mmHg 63%
    18:00 +15°C° 0 mm 2 m/s 750 mmHg 70%
    19:00 +14°C° 0 mm 2 m/s 750 mmHg 76%
    20:00 +13°C° 0 mm 2 m/s 750 mmHg 80%
    21:00 +13°C° 0 mm 2 m/s 750 mmHg 85%
    22:00 +12°C° 0 mm 2 m/s 751 mmHg 89%
    23:00 +12°C° 0 mm 2 m/s 751 mmHg 91%

    Amanhã, 19 Outubro, Sexta-feira

    Tempo Temperatura Precipitação Vento Pressão Humidade
    00:00 +12°C° 0 mm 2 m/s 751 mmHg 93%
    01:00 +10°C° 0 mm 2 m/s 751 mmHg 95%
    02:00 +10°C° 0 mm 2 m/s 751 mmHg 95%
    03:00 +10°C° 0 mm 2 m/s 751 mmHg 95%
    04:00 +10°C° 0 mm 2 m/s 751 mmHg 94%
    05:00 +10°C° 0 mm 2 m/s 752 mmHg 94%
    06:00 +9°C° 0 mm 2 m/s 752 mmHg 93%
    07:00 +9°C° 0 mm 2 m/s 752 mmHg 93%
    08:00 +12°C° 0 mm 2 m/s 753 mmHg 83%
    09:00 +13°C° 0 mm 2 m/s 753 mmHg 74%
    10:00 +14°C° 0 mm 2 m/s 753 mmHg 64%
    11:00 +15°C° 0 mm 1 m/s 753 mmHg 60%
    12:00 +16°C° 0 mm 1 m/s 753 mmHg 55%
    13:00 +16°C° 0 mm 1 m/s 753 mmHg 50%
    14:00 +16°C° 0 mm 1 m/s 753 mmHg 52%
    15:00 +15°C° 0 mm 1 m/s 753 mmHg 55%
    16:00 +15°C° 0 mm 1 m/s 753 mmHg 57%
    17:00 +13°C° 0 mm 1 m/s 754 mmHg 61%
    18:00 +12°C° 0 mm 2 m/s 754 mmHg 66%
    19:00 +10°C° 0 mm 2 m/s 754 mmHg 71%
    20:00 +10°C° 0 mm 1 m/s 754 mmHg 74%
    21:00 +10°C° 0 mm 1 m/s 754 mmHg 76%
    22:00 +9°C° 0 mm 1 m/s 754 mmHg 79%
    23:00 +9°C° 0 mm 1 m/s 754 mmHg 81%

    Depois de amanhã, 20 Outubro, Sábado

    Tempo Temperatura Precipitação Vento Pressão Humidade
    00:00 +8°C° 0 mm 1 m/s 755 mmHg 83%
    01:00 +7°C° 0 mm 2 m/s 755 mmHg 85%
    02:00 +7°C° 0 mm 2 m/s 755 mmHg 86%
    03:00 +7°C° 0 mm 2 m/s 755 mmHg 88%
    04:00 +6°C° 0 mm 2 m/s 755 mmHg 90%
    05:00 +6°C° 0 mm 2 m/s 755 mmHg 91%
    06:00 +6°C° 0 mm 2 m/s 755 mmHg 92%
    07:00 +7°C° 0 mm 2 m/s 755 mmHg 93%
    08:00 +8°C° 0 mm 2 m/s 756 mmHg 86%
    09:00 +10°C° 0 mm 3 m/s 756 mmHg 78%
    10:00 +11°C° 0 mm 4 m/s 756 mmHg 71%
    11:00 +11°C° 0 mm 4 m/s 756 mmHg 67%
    12:00 +12°C° 0 mm 4 m/s 756 mmHg 64%
    13:00 +12°C° 0 mm 4 m/s 756 mmHg 61%
    14:00 +12°C° 0 mm 4 m/s 756 mmHg 63%
    15:00 +11°C° 0 mm 4 m/s 756 mmHg 64%
    16:00 +11°C° 0 mm 4 m/s 756 mmHg 66%
    17:00 +10°C° 0 mm 4 m/s 756 mmHg 70%
    18:00 +10°C° 0 mm 4 m/s 756 mmHg 74%
    19:00 +8°C° 0 mm 4 m/s 756 mmHg 78%
    20:00 +9°C° 0 mm 3 m/s 756 mmHg 81%
    21:00 +9°C° 0 mm 3 m/s 756 mmHg 83%
    22:00 +9°C° 0 mm 3 m/s 756 mmHg 85%
    23:00 +9°C° 0 mm 3 m/s 756 mmHg 87%

    21 Outubro, Domingo

    Tempo Temperatura Precipitação Vento Pressão Humidade
    00:00 +9°C° 0 mm 3 m/s 756 mmHg 90%
    01:00 +8°C° 0 mm 3 m/s 756 mmHg 92%
    02:00 +8°C° 0 mm 2 m/s 756 mmHg 93%
    03:00 +7°C° 0 mm 2 m/s 756 mmHg 95%
    04:00 +7°C° 0 mm 2 m/s 756 mmHg 96%
    05:00 +7°C° 0 mm 2 m/s 756 mmHg 96%
    06:00 +7°C° 0 mm 2 m/s 756 mmHg 96%
    07:00 +7°C° 0 mm 2 m/s 756 mmHg 96%
    08:00 +9°C° 0 mm 3 m/s 756 mmHg 92%
    09:00 +10°C° 0 mm 3 m/s 756 mmHg 87%
    10:00 +11°C° 0 mm 3 m/s 756 mmHg 82%
    11:00 +12°C° 0 mm 3 m/s 756 mmHg 80%
    12:00 +12°C° 0 mm 3 m/s 756 mmHg 77%
    13:00 +13°C° 0 mm 3 m/s 756 mmHg 74%
    14:00 +12°C° 0 mm 3 m/s 756 mmHg 74%
    15:00 +13°C° 0 mm 2 m/s 755 mmHg 74%
    16:00 +13°C° 0 mm 2 m/s 755 mmHg 74%
    17:00 +13°C° 0 mm 2 m/s 755 mmHg 75%
    18:00 +12°C° 0 mm 2 m/s 755 mmHg 77%
    19:00 +10°C° 0 mm 2 m/s 754 mmHg 78%
    20:00 +10°C° 0 mm 3 m/s 754 mmHg 76%
    21:00 +10°C° 0 mm 3 m/s 754 mmHg 73%
    22:00 +10°C° 0 mm 3 m/s 754 mmHg 71%
    23:00 +10°C° 0 mm 3 m/s 754 mmHg 68%

    22 Outubro, Segunda-feira

    Tempo Temperatura Precipitação Vento Pressão Humidade
    00:00 +10°C° 0 mm 3 m/s 753 mmHg 65%
    01:00 +10°C° 0 mm 4 m/s 753 mmHg 62%
    02:00 +10°C° 0 mm 4 m/s 752 mmHg 61%
    03:00 +10°C° 0 mm 4 m/s 752 mmHg 60%
    04:00 +10°C° 0 mm 4 m/s 752 mmHg 59%
    05:00 +10°C° 0 mm 4 m/s 752 mmHg 59%
    06:00 +10°C° 0 mm 4 m/s 751 mmHg 60%
    07:00 +10°C° 0 mm 4 m/s 751 mmHg 60%
    08:00 +10°C° 0.1 mm 4 m/s 751 mmHg 65%
    09:00 +10°C° 0.1 mm 4 m/s 752 mmHg 69%
    10:00 +10°C° 0.1 mm 4 m/s 752 mmHg 74%
    11:00 +11°C° 0.1 mm 4 m/s 752 mmHg 70%
    12:00 +12°C° 0.1 mm 4 m/s 752 mmHg 66%
    13:00 +12°C° 0.1 mm 4 m/s 752 mmHg 62%
    14:00 +12°C° 0 mm 4 m/s 752 mmHg 63%
    15:00 +11°C° 0 mm 4 m/s 752 mmHg 65%
    16:00 +11°C° 0 mm 4 m/s 752 mmHg 66%
    17:00 +10°C° 0 mm 4 m/s 752 mmHg 65%
    18:00 +10°C° 0 mm 4 m/s 752 mmHg 65%
    19:00 +8°C° 0 mm 4 m/s 752 mmHg 65%
    20:00 +7°C° 0 mm 4 m/s 752 mmHg 66%
    21:00 +7°C° 0 mm 4 m/s 751 mmHg 68%
    22:00 +6°C° 0 mm 4 m/s 751 mmHg 70%
    23:00 +6°C° 0.1 mm 4 m/s 751 mmHg 72%

    23 Outubro, Terça-feira

    Tempo Temperatura Precipitação Vento Pressão Humidade
    00:00 +6°C° 0.1 mm 4 m/s 750 mmHg 73%
    01:00 +6°C° 0.1 mm 4 m/s 750 mmHg 74%
    02:00 +6°C° 0.1 mm 4 m/s 750 mmHg 76%
    03:00 +5°C° 0.1 mm 4 m/s 749 mmHg 77%
    04:00 +5°C° 0.1 mm 5 m/s 749 mmHg 79%
    05:00 +5°C° 0.1 mm 4 m/s 748 mmHg 80%
    06:00 +5°C° 0.1 mm 4 m/s 747 mmHg 82%
    07:00 +5°C° 0.1 mm 4 m/s 747 mmHg 83%
    08:00 +5°C° 0.1 mm 5 m/s 746 mmHg 81%
    09:00 +6°C° 0.1 mm 5 m/s 746 mmHg 79%
    10:00 +6°C° 0.1 mm 5 m/s 745 mmHg 77%
    11:00 +5°C° 0.6 mm 6 m/s 745 mmHg 76%
    12:00 +7°C° 0.6 mm 6 m/s 744 mmHg 76%
    13:00 +7°C° 0.6 mm 6 m/s 743 mmHg 75%
    14:00 +7°C° 0.4 mm 6 m/s 743 mmHg 77%
    15:00 +7°C° 0.4 mm 6 m/s 742 mmHg 79%
    16:00 +5°C° 0.4 mm 6 m/s 742 mmHg 81%
    17:00 +6°C° 0.3 mm 5 m/s 742 mmHg 82%
    18:00 +6°C° 0.3 mm 5 m/s 742 mmHg 84%
    19:00 +6°C° 0.3 mm 4 m/s 742 mmHg 85%
    20:00 +5°C° 0 mm 4 m/s 742 mmHg 86%
    21:00 +4°C° 0 mm 3 m/s 742 mmHg 86%
    22:00 +4°C° 0 mm 3 m/s 743 mmHg 87%
    23:00 +3°C° 0 mm 3 m/s 743 mmHg 87%
    Mostrar mais